Weather observations for the past three days for
Huntingburg
Imperial (Metric)
Date Time (edt) Wind (mph) Vis. (mi.) Weather Sky Cond. Temperature (ºF) Relative Humidity Wind Chill (°F) Heat Index (°F) Pressure Precipitation (in)
Air Dwpt 6 hour altimeter (in) sea level (mb) 1 hr 3 hr 6 hr
Max. Min.
14 03:56 W 6 10.00 Partly Cloudy SCT100 69.1 62.1 78% 29.96 1013.8
14 02:56 E 3 10.00 Fair CLR 72 62.1 71% 29.92 1012.6
14 01:56 S 14 10.00 Fair CLR 73 61 84 69.1 66% 29.89 1011.4
14 00:56 S 3 10.00 A Few Clouds FEW095 70 64 82% 29.97 1014.4
13 23:56 Calm 10.00 A Few Clouds FEW100 72 63 73% 29.98 1014.7
13 22:56 S 3 10.00 Fair CLR 75 62.1 64% 77 29.94 1013.4
13 21:56 S 3 10.00 Fair CLR 75.9 63 64% 78 29.93 1013.0
13 20:56 Calm 10.00 Fair CLR 80.1 62.1 54% 81 29.93 1013.1
13 19:56 S 6 10.00 Fair CLR 84 63 87.1 84 49% 85 29.93 1012.9
13 18:56 SW 7 9.00 Fair CLR 86 61 43% 86 29.93 1013.2
13 17:56 SW 9 10.00 Fair CLR 86 59 40% 85 29.95 1013.7
13 16:56 SW 8 10.00 Fair CLR 86 59 40% 85 29.95 1013.8
13 15:56 SW 12 10.00 Fair CLR 86 61 43% 86 29.96 1014.2
13 14:56 SW 10 G 16 9.00 Fair CLR 84.9 59 42% 85 29.98 1014.7
13 13:56 SW 8 8.00 Fair CLR 84.9 59 84.9 64.9 42% 85 29.99 1015.0
13 12:56 S 8 9.00 Fair CLR 82.9 59 44% 83 30 1015.5
13 11:56 S 7 9.00 Fair CLR 81 57 44% 81 30.02 1016.1
13 10:56 Vrbl 5 6.00 Fair with Haze CLR 79 59 50% 80 30.02 1016.0
13 09:56 SW 5 7.00 Fair CLR 75 57.9 55% 78 30.02 1016.3
13 08:56 S 6 7.00 Fair CLR 70 61 73% 30.01 1015.9
13 07:56 Calm 4.00 Fog/Mist CLR 64 60.1 64 57 87% 30.01 1015.8
13 06:56 Calm 4.00 Fog/Mist CLR 57.9 57 97% 30 1015.5
13 05:56 SE 5 6.00 Fog/Mist CLR 59 57 93% 29.98 1014.9
13 04:56 Calm 6.00 Fog/Mist CLR 59 57 93% 29.97 1014.7
13 03:56 SE 5 6.00 Fog/Mist CLR 57.9 57 97% 29.97 1014.6
13 02:56 Calm 6.00 Fair with Haze CLR 61 55.9 84% 29.98 1014.8
13 01:56 Calm 7.00 Fair CLR 63 57 81 63 81% 29.98 1014.9
13 00:56 SE 5 7.00 Fair CLR 64.9 57 76% 29.98 1014.7
12 23:56 SE 5 8.00 Fair CLR 64.9 57 76% 29.98 1014.9
12 22:56 S 3 7.00 Fair CLR 68 57 68% 29.99 1015.2
12 21:56 S 3 8.00 Fair CLR 71.1 55.9 59% 29.98 1015.1
12 20:56 S 3 5.00 Fair with Haze CLR 78.1 54 43% 79 29.98 1015.0
12 19:56 S 5 6.00 Fair with Haze CLR 81 54 84 80.1 39% 81 29.99 1015.2
12 18:56 S 6 8.00 Fair CLR 82.9 51.1 33% 81 29.98 1014.8
12 17:56 Vrbl 6 6.00 Fair with Haze CLR 84 51.1 32% 82 29.99 1015.1
12 16:56 S 5 7.00 Fair CLR 82.9 51.1 33% 81 29.99 1015.3
12 15:56 Vrbl 5 5.00 Fair with Haze CLR 82.9 51.1 33% 81 30.01 1015.8
12 14:56 Vrbl 3 7.00 Fair CLR 81 50 34% 80 30.02 1016.3
12 13:56 Vrbl 3 7.00 Fair CLR 80.1 48 81 57.9 33% 79 30.04 1016.7
12 12:56 S 6 8.00 Fair CLR 79 48.9 35% 79 30.05 1017.1
12 11:56 Calm 8.00 Fair CLR 77 46.9 35% 78 30.06 1017.6
12 09:56 S 5 6.00 Fair with Haze CLR 71.1 52 51% 30.07 1018.0
12 08:56 Calm 6.00 Fair with Haze CLR 66 54 65% 30.07 1017.8
12 07:56 Calm 5.00 Fog/Mist CLR 57.9 54 57.9 51.1 87% 30.06 1017.5
12 06:56 Calm 5.00 Fog/Mist CLR 52 52 100% 30.05 1017.4
12 05:56 Calm 7.00 Fair CLR 52 51.1 97% 30.04 1016.9
12 04:56 Calm 7.00 Fair CLR 53.1 52 96% 30.03 1016.6
12 03:56 Calm 7.00 Fair CLR 54 52 93% 30.01 1016.1
12 02:56 Calm 7.00 Fair CLR 54 52 93% 30.01 1016.0
12 01:56 Calm 7.00 Fair CLR 55.9 52 75.9 55.9 87% 30.01 1016.0
12 00:56 Calm 8.00 Fair CLR 57 52 83% 30.01 1016.1
11 23:56 SE 3 8.00 Fair CLR 59 48.9 69% 30.01 1015.9
11 22:56 Calm 8.00 Fair CLR 61 48.9 65% 30.01 1015.9
11 21:56 Calm 9.00 Fair CLR 64 51.1 63% 29.99 1015.4
11 20:56 Calm 7.00 Fair CLR 71.1 48.9 46% 29.99 1015.3
11 19:56 Calm 6.00 Fair with Haze CLR 75.9 46 77 73 35% 78 29.98 1015.0
11 18:56 N 3 8.00 Fair CLR 77 45 32% 78 29.97 1014.7
11 17:56 N 5 8.00 Fair CLR 75.9 42.1 30% 77 29.98 1014.9
11 16:56 Calm 8.00 Fair CLR 75.9 42.1 30% 77 29.98 1015.1
11 15:56 NW 6 8.00 Fair CLR 75.9 43 31% 77 30 1015.7
11 14:56 N 8 8.00 Fair CLR 73.9 42.1 32% 30.02 1016.4
11 13:56 Vrbl 5 9.00 Fair CLR 73 39.9 73 52 30% 30.02 1016.6
11 12:56 Vrbl 6 10.00 Fair CLR 71.1 37 29% 30.04 1017.0
11 11:56 NW 8 9.00 Fair CLR 69.1 43 39% 30.05 1017.3
11 10:56 Vrbl 3 9.00 Fair CLR 66.9 39.9 37% 30.04 1017.3
11 09:56 Calm 7.00 Fair CLR 63 48 58% 30.05 1017.4
11 08:56 Calm 8.00 Fair CLR 57.9 48.9 72% 30.04 1017.2
11 07:56 Calm 5.00 Fog/Mist CLR 52 52 53.1 46.9 100% 30.05 1017.6
11 05:56 NW 5 4.00 Fog/Mist CLR 48.9 48.9 100% 48 30.03 1016.9
11 04:56 Calm 6.00 Fog/Mist CLR 51.1 51.1 100% 30.01 1016.2
Date Time (edt) Wind (mph) Vis. (mi.) Weather Sky Cond. Air Dwpt Max. Min. Relative Humidity Wind Chill (°F) Heat Index (°F) altimeter (in) sea level (mb) 1 hr 3 hr 6 hr
6 hour
Temperature (ºF) Pressure Precipitation (in)